Location: Braunsdorf
(50.7357°N, 11.9136°E)
Time: 08:52:32
(UTC+00:00)

STARLINK-1146 - Pass Details

Date: 17 February 2020
Orbit: 379 x 380 km, 53.0° (Epoch: 28 March)

Event Time Altitude Azimuth Distance (km) Brightness Sun altitude
Exits shadow 03:33:47 19° 69° (ENE) 992 5.7 -27.1°
Drops below altitude 10° 03:34:49 10° 71° (ENE) 1,412 6.7 -26.9°
Enters shadow 04:29:46 -71° 264° (W) 12,419 10.5 -18.3°
